When you browse on this site, cookies collect data to enhance your experience and personalize the content and advertising you see.
Visit our Privacy Policy to learn more. By continuing to use the site, you agree to this use of cookies and data.
  • In Hungary
  • List of Countries
  • For 7 days
  • Water Temperature
  • Satellite Maps
  • Weather Map
  • News
  • Weather Widgets
  • user-avatar
    Login

    Hourly Weather Salem

    Today, 22 February, Friday

    Time Temperature Precipitation Wind Pressure Humidity
    00:00 +1°C° 0 mm 1 mps 761 mmHg 71%
    01:00 +1°C° 0 mm 1 mps 761 mmHg 71%
    02:00 +1°C° 0 mm 1 mps 761 mmHg 71%
    03:00 0°C° 0 mm 1 mps 761 mmHg 71%
    04:00 0°C° 0 mm 1 mps 761 mmHg 71%
    05:00 0°C° 0 mm 1 mps 761 mmHg 70%
    06:00 0°C° 0 mm 1 mps 761 mmHg 70%
    07:00 -2°C° 0 mm 2 mps 760 mmHg 69%
    08:00 +1°C° 0 mm 2 mps 760 mmHg 64%
    09:00 +2°C° 0 mm 3 mps 760 mmHg 59%
    10:00 +4°C° 0 mm 3 mps 759 mmHg 54%
    11:00 +5°C° 0 mm 4 mps 759 mmHg 56%
    12:00 +6°C° 0 mm 5 mps 758 mmHg 57%
    13:00 +7°C° 0 mm 5 mps 758 mmHg 59%
    14:00 +6°C° 0.4 mm 5 mps 758 mmHg 67%
    15:00 +5°C° 0.4 mm 5 mps 758 mmHg 75%
    16:00 +5°C° 0.4 mm 5 mps 757 mmHg 83%
    17:00 +5°C° 1 mm 4 mps 758 mmHg 87%
    18:00 +4°C° 1 mm 3 mps 758 mmHg 90%
    19:00 +4°C° 1 mm 3 mps 758 mmHg 94%
    20:00 +5°C° 0.2 mm 2 mps 759 mmHg 94%
    21:00 +4°C° 0.2 mm 2 mps 759 mmHg 94%
    22:00 +4°C° 0.2 mm 1 mps 759 mmHg 94%
    23:00 +4°C° 0 mm 1 mps 760 mmHg 94%

    Tomorrow, 23 February, Saturday

    Time Temperature Precipitation Wind Pressure Humidity
    00:00 +4°C° 0 mm 1 mps 760 mmHg 93%
    01:00 +3°C° 0 mm 1 mps 760 mmHg 93%
    02:00 +3°C° 0 mm 1 mps 760 mmHg 93%
    03:00 +2°C° 0 mm 1 mps 760 mmHg 93%
    04:00 +2°C° 0 mm 1 mps 760 mmHg 93%
    05:00 +2°C° 0 mm 1 mps 761 mmHg 93%
    06:00 +2°C° 0 mm 1 mps 761 mmHg 93%
    07:00 +2°C° 0 mm 1 mps 761 mmHg 92%
    08:00 +3°C° 0 mm 2 mps 761 mmHg 88%
    09:00 +4°C° 0 mm 2 mps 761 mmHg 84%
    10:00 +6°C° 0 mm 2 mps 761 mmHg 80%
    11:00 +7°C° 0.2 mm 3 mps 761 mmHg 77%
    12:00 +8°C° 0.2 mm 3 mps 761 mmHg 73%
    13:00 +7°C° 0.2 mm 4 mps 761 mmHg 70%
    14:00 +8°C° 0.1 mm 3 mps 761 mmHg 71%
    15:00 +8°C° 0.1 mm 3 mps 760 mmHg 72%
    16:00 +8°C° 0.1 mm 3 mps 760 mmHg 73%
    17:00 +5°C° 0 mm 3 mps 760 mmHg 78%
    18:00 +5°C° 0 mm 2 mps 760 mmHg 84%
    19:00 +4°C° 0 mm 2 mps 760 mmHg 89%
    20:00 +4°C° 0.1 mm 2 mps 760 mmHg 91%
    21:00 +4°C° 0.1 mm 2 mps 760 mmHg 92%
    22:00 +5°C° 0.1 mm 1 mps 760 mmHg 94%
    23:00 +5°C° 1.3 mm 1 mps 760 mmHg 94%

    Day after tomorrow, 24 February, Sunday

    Time Temperature Precipitation Wind Pressure Humidity
    00:00 +5°C° 1.3 mm 1 mps 759 mmHg 95%
    01:00 +5°C° 1.3 mm 1 mps 759 mmHg 95%
    02:00 +4°C° 3.3 mm 1 mps 758 mmHg 96%
    03:00 +4°C° 3.3 mm 1 mps 757 mmHg 96%
    04:00 +4°C° 3.3 mm 1 mps 756 mmHg 96%
    05:00 +4°C° 3.2 mm 1 mps 756 mmHg 96%
    06:00 +4°C° 3.2 mm 1 mps 756 mmHg 97%
    07:00 +4°C° 3.2 mm 1 mps 755 mmHg 97%
    08:00 +4°C° 2.4 mm 1 mps 755 mmHg 97%
    09:00 +5°C° 2.4 mm 1 mps 755 mmHg 96%
    10:00 +5°C° 2.4 mm 1 mps 755 mmHg 96%
    11:00 +5°C° 1.6 mm 1 mps 755 mmHg 95%
    12:00 +4°C° 1.6 mm 0 mps 755 mmHg 95%
    13:00 +5°C° 1.6 mm 0 mps 755 mmHg 94%
    14:00 +5°C° 1.7 mm 0 mps 754 mmHg 95%
    15:00 +5°C° 1.7 mm 0 mps 754 mmHg 96%
    16:00 +6°C° 1.7 mm 1 mps 753 mmHg 97%
    17:00 +5°C° 2 mm 1 mps 753 mmHg 97%
    18:00 +5°C° 2 mm 1 mps 753 mmHg 97%
    19:00 +5°C° 2 mm 1 mps 752 mmHg 98%
    20:00 +4°C° 1.8 mm 1 mps 752 mmHg 97%
    21:00 +4°C° 1.8 mm 1 mps 751 mmHg 97%
    22:00 +4°C° 1.8 mm 1 mps 751 mmHg 97%
    23:00 +3°C° 1.5 mm 2 mps 750 mmHg 97%

    25 February, Monday

    Time Temperature Precipitation Wind Pressure Humidity
    00:00 +3°C° 1.5 mm 2 mps 749 mmHg 97%
    01:00 +3°C° 1.5 mm 2 mps 748 mmHg 96%
    02:00 +3°C° 2.1 mm 2 mps 747 mmHg 97%
    03:00 +3°C° 2.1 mm 2 mps 746 mmHg 97%
    04:00 +3°C° 2.1 mm 2 mps 746 mmHg 97%
    05:00 +4°C° 3.9 mm 1 mps 746 mmHg 97%
    06:00 +4°C° 3.9 mm 1 mps 746 mmHg 97%
    07:00 +3°C° 3.9 mm 1 mps 746 mmHg 97%
    08:00 +3°C° 2.3 mm 1 mps 746 mmHg 97%
    09:00 +4°C° 2.3 mm 1 mps 747 mmHg 97%
    10:00 +4°C° 2.3 mm 1 mps 747 mmHg 97%
    11:00 +4°C° 0.2 mm 1 mps 748 mmHg 96%
    12:00 +5°C° 0.2 mm 1 mps 748 mmHg 94%
    13:00 +6°C° 0.2 mm 1 mps 749 mmHg 93%
    14:00 +6°C° 0.1 mm 1 mps 749 mmHg 93%
    15:00 +5°C° 0.1 mm 2 mps 749 mmHg 92%
    16:00 +5°C° 0.1 mm 2 mps 750 mmHg 92%
    17:00 +4°C° 0.1 mm 2 mps 750 mmHg 93%
    18:00 +4°C° 0.1 mm 1 mps 751 mmHg 95%
    19:00 +2°C° 0.1 mm 1 mps 751 mmHg 96%
    20:00 +2°C° 0 mm 1 mps 752 mmHg 95%
    21:00 +2°C° 0 mm 1 mps 752 mmHg 94%
    22:00 0°C° 0 mm 0 mps 753 mmHg 94%
    23:00 0°C° 0 mm 0 mps 753 mmHg 93%

    26 February, Tuesday

    Time Temperature Precipitation Wind Pressure Humidity
    00:00 +1°C° 0 mm 1 mps 753 mmHg 92%
    01:00 +1°C° 0 mm 1 mps 753 mmHg 92%
    02:00 +1°C° 0 mm 1 mps 753 mmHg 92%
    03:00 +1°C° 0 mm 1 mps 753 mmHg 93%
    04:00 +1°C° 0 mm 1 mps 752 mmHg 93%
    05:00 +1°C° 0.1 mm 1 mps 752 mmHg 94%
    06:00 +2°C° 0.1 mm 1 mps 752 mmHg 94%
    07:00 +2°C° 0.1 mm 1 mps 751 mmHg 95%
    08:00 +1°C° 0.5 mm 2 mps 751 mmHg 95%
    09:00 +1°C° 0.5 mm 2 mps 751 mmHg 95%
    10:00 +1°C° 0.5 mm 2 mps 751 mmHg 95%
    11:00 +2°C° 0.4 mm 2 mps 750 mmHg 95%
    12:00 +2°C° 0.4 mm 3 mps 750 mmHg 95%
    13:00 +2°C° 0.4 mm 3 mps 750 mmHg 95%
    14:00 +2°C° 0.6 mm 3 mps 749 mmHg 95%
    15:00 +3°C° 0.6 mm 2 mps 748 mmHg 95%
    16:00 +3°C° 0.6 mm 2 mps 748 mmHg 95%
    17:00 +3°C° 1.4 mm 2 mps 748 mmHg 96%
    18:00 +2°C° 1.4 mm 2 mps 748 mmHg 96%
    19:00 +2°C° 1.4 mm 2 mps 748 mmHg 96%
    20:00 +2°C° 1.2 mm 2 mps 748 mmHg 96%
    21:00 +2°C° 1.2 mm 2 mps 749 mmHg 95%
    22:00 +1°C° 1.2 mm 3 mps 749 mmHg 95%
    23:00 +2°C° 0.8 mm 2 mps 750 mmHg 96%

    27 February, Wednesday

    Time Temperature Precipitation Wind Pressure Humidity
    00:00 +4°C° 0.8 mm 1 mps 750 mmHg 98%
    01:00 +4°C° 0.8 mm 1 mps 751 mmHg 99%
    02:00 +4°C° 0.1 mm 1 mps 751 mmHg 98%
    03:00 +2°C° 0.1 mm 2 mps 752 mmHg 97%
    04:00 +2°C° 0.1 mm 2 mps 753 mmHg 97%
    05:00 +2°C° 0 mm 2 mps 754 mmHg 96%
    06:00 +2°C° 0 mm 2 mps 755 mmHg 95%
    07:00 +2°C° 0 mm 2 mps 756 mmHg 94%
    08:00 +3°C° 0.1 mm 2 mps 756 mmHg 94%
    09:00 +4°C° 0.1 mm 2 mps 757 mmHg 94%
    10:00 +5°C° 0.1 mm 2 mps 757 mmHg 94%
    11:00 +4°C° 0.3 mm 3 mps 758 mmHg 93%
    12:00 +5°C° 0.3 mm 3 mps 758 mmHg 91%
    13:00 +7°C° 0.3 mm 3 mps 758 mmHg 90%
    14:00 +5°C° 0.5 mm 3 mps 758 mmHg 90%
    15:00 +5°C° 0.5 mm 3 mps 757 mmHg 91%
    16:00 +6°C° 0.5 mm 2 mps 757 mmHg 91%
    17:00 +6°C° 0.4 mm 2 mps 757 mmHg 92%
    18:00 +5°C° 0.4 mm 2 mps 757 mmHg 94%
    19:00 +5°C° 0.4 mm 1 mps 757 mmHg 95%
    20:00 +5°C° 0.9 mm 1 mps 757 mmHg 95%
    21:00 +5°C° 0.9 mm 1 mps 757 mmHg 96%
    22:00 +5°C° 0.9 mm 1 mps 756 mmHg 97%
    23:00 +4°C° 0.3 mm 1 mps 756 mmHg 97%
    Show more